OK1KKY-18 Weather Reports


time (UTC)temp
C
wind
direction
speed
KPH
gust
KPH
rain 1hr
cm
rain 24hr
cm
rain mn
cm
humidity
%
barometer
mb
20260502163553 17 0.0 0.0 0.00 0.00 0.00 35 1020.8
20260502162553 18 0.0 0.0 0.00 0.00 0.00 32 1020.8
20260502161553 18 0.0 0.0 0.00 0.00 0.00 31 1020.9
20260502160553 20 0.0 0.0 0.00 0.00 0.00 27 1021.0
20260502151559 23 0.0 0.0 0.00 0.00 0.00 20 1021.4
20260502112822 21 0.0 0.0 0.00 0.00 0.00 23 1024.1
20260502111822 20 0.0 0.0 0.00 0.00 0.00 27 1024.2
20260502110822 20 0.0 0.0 0.00 0.00 0.00 27 1024.3
20260502105822 20 0.0 0.0 0.00 0.00 0.00 25 1024.5
20260502104822 20 0.0 0.0 0.00 0.00 0.00 24 1024.5
20260502103823 20 0.0 0.0 0.00 0.00 0.00 23 1024.7
20260502102823 20 0.0 0.0 0.00 0.00 0.00 25 1024.7
20260502101823 19 0.0 0.0 0.00 0.00 0.00 26 1024.8
20260502100826 20 0.0 0.0 0.00 0.00 0.00 26 1024.9
20260502090822 18 0.0 0.0 0.00 0.00 0.00 28 1025.4
20260502070822 14 0.0 0.0 0.00 0.00 0.00 49 1026.0
20260502065822 13 0.0 0.0 0.00 0.00 0.00 53 1026.1
20260502064822 12 0.0 0.0 0.00 0.00 0.00 53 1026.2
20260502063822 11 0.0 0.0 0.00 0.00 0.00 55 1026.2
20260502062822 11 0.0 0.0 0.00 0.00 0.00 57 1026.3
20260502061822 10 0.0 0.0 0.00 0.00 0.00 60 1026.3
20260502060822 9 0.0 0.0 0.00 0.00 0.00 64 1026.2
20260502055821 8 0.0 0.0 0.00 0.00 0.00 66 1026.3
20260502054823 7 0.0 0.0 0.00 0.00 0.00 68 1026.4
20260502053829 7 0.0 0.0 0.00 0.00 0.00 68 1026.3
20260502052821 6 0.0 0.0 0.00 0.00 0.00 70 1026.4
20260502051822 6 0.0 0.0 0.00 0.00 0.00 71 1026.4
20260502050822 5 0.0 0.0 0.00 0.00 0.00 72 1026.4
20260502045822 5 0.0 0.0 0.00 0.00 0.00 72 1026.4
20260502044822 5 0.0 0.0 0.00 0.00 0.00 72 1026.4
20260502043822 5 0.0 0.0 0.00 0.00 0.00 73 1026.4
20260502042821 5 0.0 0.0 0.00 0.00 0.00 73 1026.4
20260502041822 5 0.0 0.0 0.00 0.00 0.00 73 1026.5
20260502040822 5 0.0 0.0 0.00 0.00 0.00 73 1026.4
20260502035821 5 0.0 0.0 0.00 0.00 0.00 73 1026.4
20260502034822 5 0.0 0.0 0.00 0.00 0.00 74 1026.4
20260502033826 5 0.0 0.0 0.00 0.00 0.00 72 1026.5
20260502032821 5 0.0 0.0 0.00 0.00 0.00 73 1026.5
20260502031821 5 0.0 0.0 0.00 0.00 0.00 73 1026.5
20260502030822 5 0.0 0.0 0.00 0.00 0.00 72 1026.6
20260502025821 5 0.0 0.0 0.00 0.00 0.00 72 1026.7
20260502024822 5 0.0 0.0 0.00 0.00 0.00 70 1026.7
20260502023821 5 0.0 0.0 0.00 0.00 0.00 70 1026.8
20260502022822 5 0.0 0.0 0.00 0.00 0.00 70 1026.7
20260502021822 5 0.0 0.0 0.00 0.00 0.00 71 1026.7
20260502020822 5 0.0 0.0 0.00 0.00 0.00 71 1026.9
20260502015822 5 0.0 0.0 0.00 0.00 0.00 70 1026.8
20260502014822 5 0.0 0.0 0.00 0.00 0.00 69 1026.9
20260502013821 5 0.0 0.0 0.00 0.00 0.00 68 1026.9
20260502012823 6 0.0 0.0 0.00 0.00 0.00 68 1026.8
20260502011822 5 0.0 0.0 0.00 0.00 0.00 69 1026.9
20260502010822 6 0.0 0.0 0.00 0.00 0.00 67 1026.9
20260502005821 5 0.0 0.0 0.00 0.00 0.00 68 1026.9
20260502004822 5 0.0 0.0 0.00 0.00 0.00 68 1027.0
20260502003822 5 0.0 0.0 0.00 0.00 0.00 68 1027.0
20260502002822 5 0.0 0.0 0.00 0.00 0.00 69 1027.1
20260502001822 5 0.0 0.0 0.00 0.00 0.00 68 1027.1
20260502000822 6 0.0 0.0 0.00 0.00 0.00 68 1027.2
20260501235822 6 0.0 0.0 0.00 0.00 0.00 65 1027.1
20260501234822 6 0.0 0.0 0.00 0.00 0.00 65 1027.2
20260501233822 6 0.0 0.0 0.00 0.00 0.00 67 1027.2
20260501232822 6 0.0 0.0 0.00 0.00 0.00 68 1027.2
20260501231821 6 0.0 0.0 0.00 0.00 0.00 67 1027.3
20260501230822 6 0.0 0.0 0.00 0.00 0.00 66 1027.2
20260501225822 6 0.0 0.0 0.00 0.00 0.00 66 1027.2
20260501224823 6 0.0 0.0 0.00 0.00 0.00 67 1027.4
20260501223823 6 0.0 0.0 0.00 0.00 0.00 67 1027.4
20260501222822 6 0.0 0.0 0.00 0.00 0.00 66 1027.4
20260501220822 6 0.0 0.0 0.00 0.00 0.00 65 1027.4
20260501215822 6 0.0 0.0 0.00 0.00 0.00 65 1027.4
20260501214822 7 0.0 0.0 0.00 0.00 0.00 64 1027.3
20260501213822 7 0.0 0.0 0.00 0.00 0.00 63 1027.3
20260501212822 7 0.0 0.0 0.00 0.00 0.00 62 1027.4
20260501211826 7 0.0 0.0 0.00 0.00 0.00 63 1027.4
20260501210820 7 0.0 0.0 0.00 0.00 0.00 61 1027.4
20260501205820 7 0.0 0.0 0.00 0.00 0.00 62 1027.4
20260501204820 7 0.0 0.0 0.00 0.00 0.00 61 1027.4
20260501203820 8 0.0 0.0 0.00 0.00 0.00 61 1027.5
20260501202821 8 0.0 0.0 0.00 0.00 0.00 60 1027.5
20260501201821 8 0.0 0.0 0.00 0.00 0.00 60 1027.5
20260501200820 8 0.0 0.0 0.00 0.00 0.00 60 1027.5
20260501195820 8 0.0 0.0 0.00 0.00 0.00 61 1027.5
20260501194820 8 0.0 0.0 0.00 0.00 0.00 59 1027.5
20260501193820 8 0.0 0.0 0.00 0.00 0.00 58 1027.4
20260501192820 9 0.0 0.0 0.00 0.00 0.00 58 1027.4
20260501191821 9 0.0 0.0 0.00 0.00 0.00 58 1027.4
20260501190823 10 0.0 0.0 0.00 0.00 0.00 56 1027.3
20260501185825 10 0.0 0.0 0.00 0.00 0.00 56 1027.1
20260501184821 10 0.0 0.0 0.00 0.00 0.00 55 1027.1
20260501183820 10 0.0 0.0 0.00 0.00 0.00 55 1027.1
20260501182820 10 0.0 0.0 0.00 0.00 0.00 53 1027.0
20260501181820 11 0.0 0.0 0.00 0.00 0.00 52 1026.8
20260501180820 11 0.0 0.0 0.00 0.00 0.00 51 1026.8
20260501175820 11 0.0 0.0 0.00 0.00 0.00 51 1026.5
20260501174820 12 0.0 0.0 0.00 0.00 0.00 47 1026.5
20260501173821 12 0.0 0.0 0.00 0.00 0.00 46 1026.5
20260501172821 13 0.0 0.0 0.00 0.00 0.00 43 1026.5
20260501171820 15 0.0 0.0 0.00 0.00 0.00 39 1026.3
20260501170820 15 0.0 0.0 0.00 0.00 0.00 37 1026.3
20260501165820 16 0.0 0.0 0.00 0.00 0.00 34 1026.3
20260501164820 16 0.0 0.0 0.00 0.00 0.00 34 1026.3